[[{"header":{"parameterUnit":"m.s-1","parameterCategory":1,"la1":30.2991,"la2":30.254,"lo1":-89.0895,"lo2":-89.0444,"dy":0.0017,"dx":0.0017,"nx":28,"ny":28,"refTime":"2024-02-15T03:00:00:Z","depth":0,"parameterNumber":2,"parameterNumberName":"U-component_of_WINDS"},"data":[0,0,0,0,0,0,0,0,0,0,0,0,0,0,0,0,0,0,0,0,0,0,0,0,0,0,0,0,0,0,0,0,0,0,0,0,0,0,0,0,0,0,0,0,0,0,0,0,0,0,0,0,0,0,0,0,0,0,-0.5184,-0.5184,0,-0.5138,-0.5137,-0.5137,-0.5076,-0.5075,-0.5074,-0.5073,-0.5025,-0.5025,-0.5025,0,0,0,0,0,0,0,0,0,0,0,0,0,-0.5221,-0.522,-0.5184,-0.5184,-0.5183,-0.5138,-0.5137,-0.5136,-0.5076,-0.5075,-0.5073,-0.5072,-0.5025,-0.5025,-0.5025,0,0,0,0,0,0,0,0,0,0,0,0,0,-0.5193,-0.522,-0.5184,-0.5147,-0.5144,-0.5138,-0.5137,-0.5136,-0.5076,-0.5075,-0.5073,-0.5072,-0.5025,-0.5025,-0.5024,-0.5051,0,0,-0.5023,-0.5023,0,0,0,0,0,0,0,0,-0.5194,-0.5191,-0.5153,-0.515,-0.5146,-0.5111,-0.5133,-0.5108,-0.5077,-0.5102,-0.5073,-0.5071,-0.5055,-0.5052,-0.5046,-0.5049,-0.5047,-0.5023,-0.5023,-0.5022,-0.5022,0,0,0,0,0,0,0,-0.5196,-0.5193,-0.5166,-0.5153,-0.5148,-0.5133,-0.5128,-0.5128,-0.5087,-0.5099,-0.5095,-0.509,-0.5053,-0.5047,-0.5045,-0.5046,-0.5023,-0.5022,-0.5022,-0.5022,-0.5069,-0.507,0,0,0,0,0,0,-0.5204,-0.5195,-0.5167,-0.5164,-0.5167,-0.5134,-0.5127,-0.5124,-0.5087,-0.508,-0.5092,-0.5088,-0.5049,-0.5046,-0.5043,-0.5072,-0.5022,-0.5022,-0.5022,-0.5067,-0.5069,-0.5071,0,0,0,0,0,0,-0.5205,-0.5202,-0.5169,-0.5178,-0.5173,-0.5135,-0.5131,-0.5123,-0.5118,-0.5081,-0.5074,-0.5093,-0.5047,-0.5044,-0.505,-0.5069,-0.5022,-0.5021,-0.5065,-0.5068,-0.507,-0.513,0,0,0,0,0,0,-0.5206,-0.5203,-0.5212,-0.5179,-0.5173,-0.5176,-0.5132,-0.5124,-0.5117,-0.5112,-0.5081,-0.5074,-0.5046,-0.5051,-0.5049,-0.5068,-0.5021,-0.5064,-0.5067,-0.5069,-0.5126,-0.5134,-0.5141,0,0,0,0,0,-0.5208,-0.5231,-0.5213,-0.521,-0.5184,-0.5178,-0.5174,-0.5141,-0.5119,-0.5128,-0.5105,-0.5075,-0.5068,-0.5052,-0.505,-0.5068,-0.5062,-0.5066,-0.5069,-0.5122,-0.5132,-0.514,0,0,0,0,0,0,-0.5267,-0.5226,-0.5206,-0.5219,-0.5202,-0.5167,-0.5178,-0.5152,-0.5142,-0.5137,-0.5096,-0.509,-0.5101,-0.5085,-0.5068,-0.5092,-0.5061,-0.5064,-0.5102,-0.5111,-0.5118,-0.5121,-0.502,0,0,0,0,0,-0.5282,-0.528,-0.5244,-0.5259,-0.5252,-0.5217,-0.5213,-0.5189,-0.517,-0.5163,-0.5139,-0.5123,-0.5116,-0.5113,-0.5105,-0.5124,-0.5116,-0.5136,-0.5143,-0.5149,-0.5152,-0.5161,-0.5169,-0.5082,-0.5082,-0.5082,0,0,-0.5311,-0.5289,-0.529,-0.527,-0.5255,-0.5254,-0.5211,-0.5212,-0.5211,-0.5163,-0.5167,-0.515,-0.5128,-0.5141,-0.5145,-0.5128,-0.5175,-0.5154,-0.5159,-0.5158,-0.5165,-0.5173,-0.5181,-0.5085,-0.5084,-0.5084,0,0,-0.5365,-0.5348,-0.5359,-0.5344,-0.5321,-0.5298,-0.5301,-0.527,-0.5257,-0.5261,-0.5225,-0.5223,-0.5213,-0.5199,-0.5191,-0.5242,-0.5214,-0.524,-0.5278,-0.5287,-0.5294,-0.53,-0.5317,-0.5324,-0.5244,-0.5244,-0.5244,0,-0.5405,-0.5402,-0.5367,-0.537,-0.5363,-0.532,-0.533,-0.5318,-0.5294,-0.529,-0.5272,-0.5259,-0.5241,-0.525,-0.5262,-0.5257,-0.5259,-0.5243,-0.5296,-0.5302,-0.5306,-0.5323,-0.5329,-0.5247,-0.5247,-0.5246,-0.5246,0,-0.5452,-0.5451,-0.5462,-0.544,-0.5434,-0.5441,-0.5407,-0.5406,-0.5383,-0.5362,-0.5366,-0.5344,-0.5331,-0.5332,-0.5309,-0.5337,-0.5328,-0.5304,-0.527,-0.5319,-0.5333,-0.5339,-0.5252,-0.525,-0.5249,-0.5249,0,0,-0.554,-0.55,-0.5504,-0.5494,-0.5466,-0.5465,-0.547,-0.5458,-0.5457,-0.5442,-0.5445,-0.5439,-0.5416,-0.5407,-0.5383,-0.5391,-0.5432,-0.5366,-0.5365,-0.5378,-0.5461,-0.5479,-0.5487,-0.5414,-0.5415,-0.5416,-0.5463,0,-0.5588,-0.5594,-0.5564,-0.5578,-0.5576,-0.5537,-0.5541,-0.5525,-0.5506,-0.5502,-0.5481,-0.5477,-0.5448,-0.5442,-0.5448,-0.5426,-0.5448,-0.5422,-0.5417,-0.5417,-0.5422,-0.5494,-0.5513,-0.5558,-0.5468,-0.5469,-0.547,0,-0.5644,-0.5632,-0.5647,-0.5619,-0.5617,-0.5622,-0.5608,-0.5605,-0.5586,-0.5572,-0.5562,-0.5535,-0.5538,-0.5508,-0.5513,-0.5496,-0.5492,-0.5481,-0.5482,-0.5479,-0.5445,-0.5492,-0.5571,-0.5578,-0.5479,-0.5478,-0.5477,0,-0.5706,-0.5694,-0.5701,-0.5693,-0.5661,-0.5666,-0.5653,-0.5632,-0.5627,-0.5615,-0.5612,-0.5601,-0.5595,-0.5587,-0.5558,-0.5539,-0.5566,-0.5533,-0.5554,-0.5554,-0.556,-0.5559,-0.5638,-0.556,-0.556,-0.5559,-0.5559,0,-0.5761,-0.5771,-0.5728,-0.5732,-0.5743,-0.5708,-0.572,-0.5703,-0.5685,-0.5686,-0.5651,-0.5652,-0.5614,-0.5611,-0.5588,-0.5595,-0.5593,-0.5581,-0.5575,-0.5584,-0.5585,-0.5579,-0.5575,-0.5561,-0.5561,-0.556,-0.556,0,-0.5831,-0.5803,-0.5807,-0.5777,-0.577,-0.5779,-0.5753,-0.5756,-0.5735,-0.5736,-0.5734,-0.5702,-0.5697,-0.5667,-0.5656,-0.564,-0.5655,-0.5643,-0.5661,-0.5657,-0.5679,-0.5677,-0.5755,-0.5764,-0.5681,-0.5682,-0.5683,0,-0.5867,-0.5874,-0.5845,-0.5843,-0.5831,-0.5828,-0.5823,-0.579,-0.5786,-0.5766,-0.5771,-0.5763,-0.5755,-0.5749,-0.5724,-0.5715,-0.5702,-0.573,-0.57,-0.5709,-0.5701,-0.5701,-0.5701,-0.5736,-0.5737,-0.5738,-0.5739,0,-0.5935,-0.5921,-0.5915,-0.5904,-0.5898,-0.5888,-0.5875,-0.5876,-0.5839,-0.5836,-0.5831,-0.5825,-0.5813,-0.5806,-0.5793,-0.5779,-0.5753,-0.5749,-0.5753,-0.5761,-0.5771,-0.5765,-0.5677,-0.5747,-0.5746,-0.5745,-0.5745,-0.5744,-0.5989,-0.5993,-0.5973,-0.5967,-0.5955,-0.5944,-0.5945,-0.5925,-0.592,-0.5908,-0.5889,-0.5886,-0.5868,-0.5848,-0.5837,-0.5834,-0.5819,-0.5825,-0.5826,-0.5828,-0.5832,-0.5773,-0.5832,-0.5832,-0.5831,-0.5831,-0.5831,0,-0.6054,-0.6039,-0.6034,-0.6018,-0.6014,-0.5991,-0.5976,-0.5974,-0.5971,-0.5957,-0.595,-0.5944,-0.5937,-0.5913,-0.5903,-0.5906,-0.5894,-0.5905,-0.5903,-0.5901,-0.5847,-0.5844,-0.5915,-0.5915,-0.5915,-0.5915,-0.5915,-0.5914,-0.6087,-0.6093,-0.6077,-0.6076,-0.6062,-0.6059,-0.6052,-0.6043,-0.6031,-0.6026,-0.602,-0.6004,-0.5986,-0.5975,-0.5968,-0.5961,-0.5959,-0.5973,-0.5962,-0.5912,-0.5904,-0.5897,-0.5893,-0.5973,-0.5974,-0.6016,-0.6016,-0.6017]},{"header":{"parameterUnit":"m.s-1","parameterCategory":1,"la1":30.2991,"la2":30.254,"lo1":-89.0895,"lo2":-89.0444,"dy":0.0017,"dx":0.0017,"nx":28,"ny":28,"refTime":"2024-02-15T03:00:00:Z","depth":0,"parameterNumber":3,"parameterNumberName":"V-component_of_WINDS"},"data":[0,0,0,0,0,0,0,0,0,0,0,0,0,0,0,0,0,0,0,0,0,0,0,0,0,0,0,0,0,0,0,0,0,0,0,0,0,0,0,0,0,0,0,0,0,0,0,0,0,0,0,0,0,0,0,0,0,0,1.5775,1.5775,0,1.5795,1.5796,1.5796,1.585,1.5851,1.5852,1.5854,1.5871,1.587,1.587,0,0,0,0,0,0,0,0,0,0,0,0,0,1.5781,1.5781,1.5775,1.5775,1.5776,1.5795,1.5796,1.5796,1.585,1.5851,1.5853,1.5854,1.5871,1.587,1.587,0,0,0,0,0,0,0,0,0,0,0,0,0,1.5787,1.578,1.5775,1.5805,1.5808,1.5795,1.5796,1.5796,1.585,1.5851,1.5853,1.5855,1.5871,1.587,1.5869,1.5828,0,0,1.5867,1.5866,0,0,0,0,0,0,0,0,1.5787,1.5787,1.58,1.5803,1.5806,1.5822,1.5804,1.5807,1.5849,1.5834,1.5854,1.5856,1.5853,1.5854,1.5853,1.5829,1.583,1.5866,1.5866,1.5865,1.5865,0,0,0,0,0,0,0,1.5786,1.5786,1.5783,1.5801,1.5804,1.5817,1.582,1.5805,1.5833,1.5835,1.5839,1.5841,1.5855,1.5854,1.5854,1.583,1.5866,1.5866,1.5865,1.5865,1.5772,1.577,0,0,0,0,0,0,1.5782,1.5786,1.5782,1.5784,1.5801,1.5815,1.5818,1.5815,1.5833,1.5838,1.5839,1.5843,1.5855,1.5855,1.5855,1.5807,1.5865,1.5865,1.5864,1.5774,1.5771,1.5769,0,0,0,0,0,0,1.5782,1.5781,1.5782,1.5786,1.5787,1.5813,1.5809,1.5815,1.5814,1.5837,1.5842,1.5834,1.5856,1.5856,1.5835,1.5808,1.5864,1.5863,1.5776,1.5773,1.577,1.5711,0,0,0,0,0,0,1.5782,1.5781,1.5766,1.5785,1.5786,1.5761,1.5808,1.5814,1.5813,1.5818,1.5833,1.5837,1.5858,1.5836,1.5834,1.5808,1.5863,1.5778,1.5775,1.5771,1.5715,1.5706,1.5699,0,0,0,0,0,1.5782,1.5748,1.5765,1.5764,1.5769,1.576,1.576,1.5786,1.581,1.5795,1.581,1.5836,1.5812,1.5833,1.5831,1.5805,1.578,1.5776,1.5772,1.5719,1.5708,1.5699,0,0,0,0,0,0,1.5724,1.5751,1.577,1.5742,1.5748,1.5769,1.575,1.5774,1.5773,1.5778,1.5809,1.5812,1.5785,1.5793,1.5816,1.5766,1.58,1.5796,1.5761,1.5751,1.5743,1.574,1.5862,0,0,0,0,0,1.5708,1.5699,1.5723,1.5696,1.5698,1.5724,1.5721,1.574,1.5748,1.575,1.5764,1.5769,1.5763,1.5757,1.5753,1.5717,1.572,1.5698,1.569,1.5683,1.5678,1.5659,1.5649,1.5755,1.5755,1.5756,0,0,1.5674,1.5688,1.5681,1.5684,1.5692,1.5681,1.5725,1.5712,1.5704,1.5748,1.5728,1.5738,1.5746,1.5717,1.5705,1.5723,1.565,1.5678,1.5672,1.5671,1.5653,1.5643,1.5634,1.5753,1.5753,1.5754,0,0,1.5607,1.5618,1.5595,1.5602,1.5613,1.5631,1.5625,1.5643,1.5651,1.5632,1.5664,1.5655,1.5644,1.5648,1.5649,1.5584,1.5608,1.5582,1.5538,1.5518,1.551,1.5503,1.5478,1.5469,1.5577,1.5577,1.5577,0,1.5564,1.555,1.5581,1.5565,1.5566,1.5606,1.5583,1.5588,1.5596,1.5595,1.5616,1.5602,1.5611,1.5582,1.5567,1.5566,1.556,1.5579,1.5509,1.5502,1.5495,1.5472,1.5463,1.5573,1.5574,1.5574,1.5574,0,1.5495,1.5485,1.5466,1.5474,1.5472,1.5453,1.548,1.5474,1.5494,1.5509,1.5488,1.55,1.5498,1.5494,1.5513,1.5468,1.5478,1.5504,1.5539,1.5481,1.546,1.5451,1.5569,1.557,1.5571,1.5572,0,0,1.539,1.5416,1.5408,1.5412,1.5428,1.542,1.5403,1.5402,1.5396,1.5401,1.5386,1.5376,1.5399,1.54,1.542,1.5403,1.535,1.5431,1.5431,1.5413,1.5299,1.5279,1.5268,1.5367,1.5365,1.5364,1.5298,0,1.5325,1.5298,1.5325,1.5291,1.5282,1.5321,1.5306,1.5313,1.5327,1.532,1.5335,1.5327,1.5359,1.5359,1.5345,1.5359,1.5327,1.5365,1.5351,1.535,1.5346,1.5257,1.5236,1.5173,1.529,1.5289,1.5288,0,1.5246,1.5248,1.5213,1.5231,1.5228,1.5214,1.5215,1.5209,1.5218,1.5229,1.523,1.5255,1.5238,1.5274,1.5251,1.5276,1.5272,1.5278,1.5277,1.5275,1.5314,1.5251,1.5154,1.5143,1.5275,1.5276,1.5277,0,1.5171,1.5165,1.5143,1.5146,1.5166,1.5155,1.5163,1.5174,1.5172,1.5173,1.5172,1.517,1.5169,1.5167,1.5191,1.5215,1.5163,1.5202,1.5171,1.517,1.5156,1.5156,1.5055,1.5157,1.5157,1.5157,1.5158,0,1.5094,1.5071,1.511,1.5096,1.5071,1.5103,1.5077,1.5089,1.5098,1.5087,1.5121,1.511,1.5143,1.5134,1.5153,1.5129,1.5129,1.5136,1.5141,1.5132,1.5131,1.5128,1.5133,1.5155,1.5156,1.5156,1.5156,0,1.5005,1.503,1.5009,1.5031,1.5036,1.5016,1.5034,1.5022,1.5039,1.5024,1.5022,1.5048,1.504,1.5064,1.5059,1.5071,1.5037,1.505,1.5034,1.5037,1.5004,1.5006,1.4896,1.4882,1.4995,1.4994,1.4993,0,1.4953,1.4937,1.4957,1.4952,1.4959,1.4951,1.4949,1.498,1.4976,1.4986,1.4972,1.4967,1.4965,1.495,1.4967,1.4963,1.4975,1.4937,1.4975,1.4966,1.4973,1.4972,1.497,1.4928,1.4927,1.4926,1.4925,0,1.4859,1.4873,1.4869,1.487,1.4867,1.4869,1.4873,1.4867,1.49,1.4895,1.4887,1.4886,1.4882,1.4875,1.4876,1.4883,1.4908,1.4913,1.4906,1.4895,1.4886,1.4889,1.501,1.4915,1.4916,1.4917,1.4917,1.4918,1.4786,1.4773,1.4785,1.478,1.4787,1.479,1.4779,1.4795,1.479,1.479,1.4808,1.4797,1.4806,1.481,1.4814,1.4805,1.4822,1.4812,1.4808,1.4805,1.4798,1.4889,1.4805,1.4806,1.4806,1.4806,1.4807,0,1.4692,1.4702,1.4697,1.4702,1.4698,1.4725,1.4731,1.4725,1.4715,1.4722,1.472,1.4711,1.4705,1.4723,1.472,1.4709,1.472,1.4707,1.4707,1.4708,1.4784,1.479,1.4697,1.4697,1.4697,1.4697,1.4697,1.4697,1.4642,1.4621,1.4636,1.4618,1.4628,1.4618,1.4619,1.4621,1.4627,1.4616,1.4612,1.4625,1.4635,1.4633,1.4629,1.4635,1.4631,1.4613,1.4621,1.4692,1.4702,1.4712,1.4718,1.4612,1.4612,1.4546,1.4545,1.4545]}]]